| time (UTC) | temp F | wind direction | speed MPH | gust MPH | rain 1hr in | rain 24hr in | rain mn in | humidity % | barometer mb |
| 20260904075306 | 65 | 126 | 6.0 | 18.0 | 0.00 | 0.00 | 0.00 | 39 | 1027.4 |
| 20260904074804 | 66 | 94 | 8.0 | 14.0 | 0.00 | 0.00 | 0.00 | 38 | 1027.1 |
| 20260904074303 | 66 | 117 | 7.0 | 14.0 | 0.00 | 0.00 | 0.00 | 38 | 1027.4 |
| 20260904073804 | 65 | 52 | 7.0 | 31.0 | 0.00 | 0.00 | 0.00 | 39 | 1027.1 |
| 20260904073303 | 64 | 189 | 13.0 | 24.0 | 0.00 | 0.00 | 0.00 | 39 | 1027.1 |
| 20260904072803 | 64 | 90 | 10.0 | 16.0 | 0.00 | 0.00 | 0.00 | 39 | 1027.1 |
| 20260904072306 | 64 | 87 | 5.0 | 10.0 | 0.00 | 0.00 | 0.00 | 39 | 1027.4 |
| 20260904071803 | 64 | 168 | 6.0 | 10.0 | 0.00 | 0.00 | 0.00 | 38 | 1027.4 |
| 20260904071303 | 64 | 7 | 6.0 | 10.0 | 0.00 | 0.00 | 0.00 | 39 | 1027.4 |
| 20260904070804 | 64 | 135 | 7.0 | 12.0 | 0.00 | 0.00 | 0.00 | 39 | 1027.4 |
| 20260904065803 | 65 | 90 | 10.0 | 13.0 | 0.00 | 0.00 | 0.00 | 37 | 1027.4 |
| 20260904065306 | 64 | 122 | 4.0 | 10.0 | 0.00 | 0.00 | 0.00 | 38 | 1027.4 |
| 20260904064803 | 64 | 270 | 5.0 | 10.0 | 0.00 | 0.00 | 0.00 | 37 | 1027.7 |
| 20260904064303 | 64 | 132 | 7.0 | 12.0 | 0.00 | 0.00 | 0.00 | 37 | 1027.4 |
| 20260904063804 | 63 | 316 | 7.0 | 20.0 | 0.00 | 0.00 | 0.00 | 38 | 1027.7 |
| 20260904063303 | 62 | 135 | 3.0 | 6.0 | 0.00 | 0.00 | 0.00 | 39 | 1027.7 |
| 20260904062803 | 62 | 224 | 5.0 | 6.0 | 0.00 | 0.00 | 0.00 | 38 | 1027.7 |
| 20260904062306 | 62 | 180 | 8.0 | 13.0 | 0.00 | 0.00 | 0.00 | 38 | 1027.7 |
| 20260904061803 | 61 | 135 | 7.0 | 9.0 | 0.00 | 0.00 | 0.00 | 39 | 1027.7 |
| 20260904061303 | 62 | 270 | 2.0 | 8.0 | 0.00 | 0.00 | 0.00 | 39 | 1027.5 |
| 20260904060857 | 62 | 225 | 5.0 | 10.0 | 0.00 | 0.00 | 0.00 | 38 | 1027.7 |
| 20260904060303 | 63 | 248 | 7.0 | 12.0 | 0.00 | 0.00 | 0.00 | 37 | 1027.4 |
| 20260904055803 | 64 | 225 | 7.0 | 8.0 | 0.00 | 0.00 | 0.00 | 36 | 1027.4 |
| 20260904055306 | 65 | 270 | 1.0 | 6.0 | 0.00 | 0.00 | 0.00 | 35 | 1027.4 |
| 20260904054303 | 65 | 96 | 10.0 | 14.0 | 0.00 | 0.00 | 0.00 | 34 | 1027.4 |
| 20260904053803 | 65 | 90 | 6.0 | 10.0 | 0.00 | 0.00 | 0.00 | 34 | 1027.7 |
| 20260904052804 | 65 | 52 | 12.0 | 23.0 | 0.00 | 0.00 | 0.00 | 34 | 1027.4 |
| 20260904052306 | 66 | 324 | 9.0 | 21.0 | 0.00 | 0.00 | 0.00 | 34 | 1027.5 |
| 20260904051803 | 66 | 288 | 14.0 | 18.0 | 0.00 | 0.00 | 0.00 | 34 | 1027.4 |
| 20260904051303 | 66 | 267 | 11.0 | 17.0 | 0.00 | 0.00 | 0.00 | 34 | 1027.3 |
| 20260904050803 | 66 | 262 | 2.0 | 8.0 | 0.00 | 0.00 | 0.00 | 34 | 1027.4 |
| 20260904050303 | 65 | 186 | 9.0 | 21.0 | 0.00 | 0.00 | 0.00 | 34 | 1027.4 |
| 20260904045803 | 65 | 224 | 6.0 | 24.0 | 0.00 | 0.00 | 0.00 | 34 | 1027.4 |
| 20260904045306 | 65 | 257 | 5.0 | 9.0 | 0.00 | 0.00 | 0.00 | 34 | 1027.4 |
| 20260904044803 | 64 | 157 | 2.0 | 5.0 | 0.00 | 0.00 | 0.00 | 34 | 1027.7 |
| 20260904044304 | 64 | 343 | 6.0 | 15.0 | 0.00 | 0.00 | 0.00 | 35 | 1027.4 |
| 20260904043803 | 64 | 218 | 16.0 | 23.0 | 0.00 | 0.00 | 0.00 | 35 | 1027.7 |
| 20260904043304 | 64 | 157 | 5.0 | 9.0 | 0.00 | 0.00 | 0.00 | 35 | 1027.7 |
| 20260904042803 | 64 | 135 | 5.0 | 7.0 | 0.00 | 0.00 | 0.00 | 35 | 1027.7 |
| 20260904042306 | 64 | 180 | 7.0 | 9.0 | 0.00 | 0.00 | 0.00 | 35 | 1027.7 |
| 20260904041803 | 65 | 180 | 6.0 | 8.0 | 0.00 | 0.00 | 0.00 | 34 | 1027.8 |
| 20260904041303 | 65 | 163 | 9.0 | 14.0 | 0.00 | 0.00 | 0.00 | 33 | 1028.1 |
| 20260904040803 | 66 | 96 | 5.0 | 7.0 | 0.00 | 0.00 | 0.00 | 33 | 1028.1 |
| 20260904040303 | 65 | 122 | 6.0 | 10.0 | 0.00 | 0.00 | 0.00 | 34 | 1028.1 |
| 20260904035804 | 66 | 160 | 7.0 | 12.0 | 0.00 | 0.00 | 0.00 | 33 | 1028.1 |
| 20260904035306 | 67 | 180 | 6.0 | 12.0 | 0.00 | 0.00 | 0.00 | 32 | 1028.1 |
| 20260904034803 | 67 | 270 | 7.0 | 12.0 | 0.00 | 0.00 | 0.00 | 32 | 1028.1 |
| 20260904033803 | 66 | 278 | 3.0 | 12.0 | 0.00 | 0.00 | 0.00 | 33 | 1028.3 |
| 20260904033303 | 64 | 270 | 8.0 | 12.0 | 0.00 | 0.00 | 0.00 | 35 | 1028.1 |
| 20260904032305 | 64 | 247 | 7.0 | 8.0 | 0.00 | 0.00 | 0.00 | 35 | 1027.8 |
| 20260904031803 | 65 | 225 | 5.0 | 7.0 | 0.00 | 0.00 | 0.00 | 34 | 1027.8 |
| 20260904031303 | 65 | 225 | 3.0 | 5.0 | 0.00 | 0.00 | 0.00 | 33 | 1028.1 |
| 20260904030804 | 66 | 0 | 5.0 | 6.0 | 0.00 | 0.00 | 0.00 | 33 | 1027.8 |
| 20260904030303 | 67 | 247 | 1.0 | 5.0 | 0.00 | 0.00 | 0.00 | 32 | 1027.7 |
| 20260904025306 | 68 | 353 | 7.0 | 12.0 | 0.00 | 0.00 | 0.00 | 31 | 1027.7 |
| 20260904024803 | 68 | 44 | 6.0 | 10.0 | 0.00 | 0.00 | 0.00 | 31 | 1027.4 |
| 20260904024304 | 68 | 101 | 5.0 | 10.0 | 0.00 | 0.00 | 0.00 | 31 | 1027.4 |
| 20260904023803 | 68 | 154 | 6.0 | 17.0 | 0.00 | 0.00 | 0.00 | 31 | 1027.4 |
| 20260904023303 | 68 | 79 | 2.0 | 13.0 | 0.00 | 0.00 | 0.00 | 31 | 1027.3 |
| 20260904022803 | 68 | 169 | 6.0 | 14.0 | 0.00 | 0.00 | 0.00 | 31 | 1027.1 |
| 20260904022305 | 68 | 195 | 5.0 | 28.0 | 0.00 | 0.00 | 0.00 | 31 | 1027.1 |
| 20260904021803 | 68 | 152 | 12.0 | 23.0 | 0.00 | 0.00 | 0.00 | 31 | 1027.1 |
| 20260904021303 | 69 | 135 | 5.0 | 10.0 | 0.00 | 0.00 | 0.00 | 31 | 1027.1 |
| 20260904020803 | 69 | 127 | 6.0 | 15.0 | 0.00 | 0.00 | 0.00 | 31 | 1027.1 |
| 20260904020303 | 69 | 134 | 6.0 | 18.0 | 0.00 | 0.00 | 0.00 | 30 | 1027.1 |
| 20260904015803 | 69 | 200 | 12.0 | 15.0 | 0.00 | 0.00 | 0.00 | 30 | 1027.1 |
| 20260904015306 | 69 | 157 | 4.0 | 20.0 | 0.00 | 0.00 | 0.00 | 30 | 1027.1 |
| 20260904014804 | 70 | 224 | 8.0 | 13.0 | 0.00 | 0.00 | 0.00 | 30 | 1027.1 |
| 20260904014303 | 70 | 187 | 5.0 | 9.0 | 0.00 | 0.00 | 0.00 | 30 | 1027.1 |
| 20260904013803 | 70 | 187 | 8.0 | 14.0 | 0.00 | 0.00 | 0.00 | 30 | 1026.8 |
| 20260904013304 | 70 | 228 | 7.0 | 10.0 | 0.00 | 0.00 | 0.00 | 30 | 1027.3 |
| 20260904012803 | 70 | 225 | 6.0 | 10.0 | 0.00 | 0.00 | 0.00 | 29 | 1027.1 |
| 20260904012306 | 70 | 232 | 10.0 | 17.0 | 0.00 | 0.00 | 0.00 | 30 | 1027.1 |
| 20260904011804 | 70 | 218 | 7.0 | 10.0 | 0.00 | 0.00 | 0.00 | 30 | 1027.1 |
| 20260904011303 | 71 | 225 | 5.0 | 9.0 | 0.00 | 0.00 | 0.00 | 29 | 1027.1 |
| 20260904010803 | 71 | 225 | 6.0 | 12.0 | 0.00 | 0.00 | 0.00 | 29 | 1027.1 |
| 20260904010303 | 71 | 229 | 4.0 | 9.0 | 0.00 | 0.00 | 0.00 | 28 | 1027.0 |
| 20260904005803 | 72 | 225 | 7.0 | 8.0 | 0.00 | 0.00 | 0.00 | 27 | 1027.0 |
| 20260904005306 | 72 | 254 | 6.0 | 15.0 | 0.00 | 0.00 | 0.00 | 27 | 1026.7 |
| 20260904004804 | 73 | 225 | 5.0 | 17.0 | 0.00 | 0.00 | 0.00 | 27 | 1026.8 |
| 20260904004303 | 73 | 225 | 9.0 | 15.0 | 0.00 | 0.00 | 0.00 | 27 | 1026.7 |
| 20260904003304 | 74 | 228 | 13.0 | 22.0 | 0.00 | 0.00 | 0.00 | 26 | 1026.7 |
| 20260904002804 | 75 | 224 | 10.0 | 16.0 | 0.00 | 0.00 | 0.00 | 26 | 1026.8 |
| 20260904001304 | 76 | 218 | 6.0 | 17.0 | 0.00 | 0.00 | 0.00 | 25 | 1026.7 |
| 20260904000803 | 75 | 173 | 6.0 | 13.0 | 0.00 | 0.00 | 0.00 | 26 | 1026.8 |
| 20260904000304 | 75 | 239 | 12.0 | 17.0 | 0.00 | 0.00 | 0.00 | 26 | 1026.7 |
| 20260903235803 | 75 | 225 | 7.0 | 14.0 | 0.00 | 0.00 | 0.00 | 26 | 1026.7 |
| 20260903235305 | 75 | 254 | 8.0 | 15.0 | 0.00 | 0.00 | 0.00 | 26 | 1026.8 |
| 20260903234803 | 75 | 228 | 10.0 | 17.0 | 0.00 | 0.00 | 0.00 | 25 | 1026.7 |
| 20260903233804 | 76 | 234 | 7.0 | 12.0 | 0.00 | 0.00 | 0.00 | 25 | 1027.0 |
| 20260903233303 | 75 | 232 | 9.0 | 13.0 | 0.00 | 0.00 | 0.00 | 24 | 1027.0 |
| 20260903232804 | 76 | 231 | 12.0 | 20.0 | 0.00 | 0.00 | 0.00 | 24 | 1026.7 |
| 20260903232306 | 76 | 259 | 7.0 | 14.0 | 0.00 | 0.00 | 0.00 | 24 | 1026.8 |
| 20260903230803 | 76 | 250 | 13.0 | 17.0 | 0.00 | 0.00 | 0.00 | 24 | 1027.1 |
| 20260903230303 | 76 | 228 | 13.0 | 22.0 | 0.00 | 0.00 | 0.00 | 23 | 1027.0 |
| 20260903225306 | 76 | 217 | 13.0 | 22.0 | 0.00 | 0.00 | 0.00 | 23 | 1027.1 |
| 20260903224803 | 76 | 260 | 13.0 | 26.0 | 0.00 | 0.00 | 0.00 | 23 | 1027.1 |
| 20260903224304 | 76 | 233 | 13.0 | 21.0 | 0.00 | 0.00 | 0.00 | 24 | 1027.1 |
| 20260903223803 | 77 | 242 | 8.0 | 22.0 | 0.00 | 0.00 | 0.00 | 24 | 1027.1 |
| 20260903223303 | 77 | 233 | 10.0 | 15.0 | 0.00 | 0.00 | 0.00 | 24 | 1027.4 |
| 20260903222305 | 76 | 217 | 7.0 | 14.0 | 0.00 | 0.00 | 0.00 | 24 | 1027.1 |
| 20260903221803 | 77 | 250 | 8.0 | 20.0 | 0.00 | 0.00 | 0.00 | 24 | 1027.4 |
| 20260903221303 | 76 | 227 | 6.0 | 12.0 | 0.00 | 0.00 | 0.00 | 23 | 1027.4 |
| 20260903220303 | 77 | 257 | 7.0 | 12.0 | 0.00 | 0.00 | 0.00 | 23 | 1027.4 |
| 20260903215803 | 77 | 215 | 7.0 | 16.0 | 0.00 | 0.00 | 0.00 | 22 | 1027.4 |
| 20260903215306 | 77 | 193 | 7.0 | 14.0 | 0.00 | 0.00 | 0.00 | 23 | 1027.4 |
| 20260903214803 | 75 | 181 | 11.0 | 20.0 | 0.00 | 0.00 | 0.00 | 23 | 1027.4 |
| 20260903212803 | 75 | 99 | 2.0 | 15.0 | 0.00 | 0.00 | 0.00 | 25 | 1027.4 |
| 20260903211804 | 76 | 99 | 6.0 | 14.0 | 0.00 | 0.00 | 0.00 | 24 | 1027.7 |
| 20260903211305 | 76 | 290 | 10.0 | 17.0 | 0.00 | 0.00 | 0.00 | 24 | 1027.7 |
| 20260903210803 | 75 | 171 | 4.0 | 12.0 | 0.00 | 0.00 | 0.00 | 24 | 1027.7 |
| 20260903210303 | 75 | 357 | 5.0 | 8.0 | 0.00 | 0.00 | 0.00 | 25 | 1027.7 |
| 20260903205804 | 74 | 251 | 9.0 | 14.0 | 0.00 | 0.00 | 0.00 | 25 | 1027.7 |
| 20260903205306 | 74 | 310 | 10.0 | 18.0 | 0.00 | 0.00 | 0.00 | 25 | 1027.7 |
| 20260903204803 | 74 | 261 | 9.0 | 18.0 | 0.00 | 0.00 | 0.00 | 26 | 1028.1 |
| 20260903204303 | 75 | 248 | 3.0 | 24.0 | 0.00 | 0.00 | 0.00 | 26 | 1028.0 |
| 20260903203803 | 75 | 252 | 6.0 | 14.0 | 0.00 | 0.00 | 0.00 | 26 | 1028.1 |
| 20260903203304 | 74 | 220 | 10.0 | 15.0 | 0.00 | 0.00 | 0.00 | 25 | 1028.1 |
| 20260903202803 | 74 | 243 | 6.0 | 17.0 | 0.00 | 0.00 | 0.00 | 25 | 1028.1 |
| 20260903202306 | 74 | 199 | 6.0 | 20.0 | 0.00 | 0.00 | 0.00 | 25 | 1028.4 |
| 20260903201803 | 75 | 78 | 2.0 | 12.0 | 0.00 | 0.00 | 0.00 | 25 | 1028.1 |
| 20260903201303 | 74 | 0 | 2.0 | 8.0 | 0.00 | 0.00 | 0.00 | 26 | 1028.1 |
| 20260903200304 | 75 | 281 | 5.0 | 23.0 | 0.00 | 0.00 | 0.00 | 25 | 1028.1 |
| 20260903195804 | 75 | 90 | 9.0 | 13.0 | 0.00 | 0.00 | 0.00 | 26 | 1028.1 |
| 20260903194803 | 75 | 13 | 2.0 | 7.0 | 0.00 | 0.00 | 0.00 | 26 | 1028.1 |
| 20260903193803 | 75 | 180 | 6.0 | 10.0 | 0.00 | 0.00 | 0.00 | 26 | 1028.4 |
| 20260903193304 | 74 | 158 | 1.0 | 5.0 | 0.00 | 0.00 | 0.00 | 27 | 1028.4 |
| 20260903192804 | 73 | 157 | 4.0 | 7.0 | 0.00 | 0.00 | 0.00 | 28 | 1028.4 |
| 20260903192306 | 72 | 332 | 7.0 | 12.0 | 0.00 | 0.00 | 0.00 | 28 | 1028.1 |
| 20260903191804 | 72 | 318 | 7.0 | 13.0 | 0.00 | 0.00 | 0.00 | 28 | 1028.4 |
| 20260903191303 | 73 | 335 | 8.0 | 12.0 | 0.00 | 0.00 | 0.00 | 27 | 1028.4 |
| 20260903190803 | 73 | 225 | 6.0 | 20.0 | 0.00 | 0.00 | 0.00 | 27 | 1028.4 |
| 20260903190304 | 73 | 125 | 5.0 | 13.0 | 0.00 | 0.00 | 0.00 | 28 | 1028.4 |
| 20260903185804 | 72 | 76 | 5.0 | 12.0 | 0.00 | 0.00 | 0.00 | 28 | 1028.4 |
| 20260903184303 | 72 | 275 | 3.0 | 10.0 | 0.00 | 0.00 | 0.00 | 29 | 1028.4 |
| 20260903183804 | 71 | 245 | 6.0 | 13.0 | 0.00 | 0.00 | 0.00 | 29 | 1028.7 |
| 20260903183303 | 71 | 292 | 5.0 | 14.0 | 0.00 | 0.00 | 0.00 | 29 | 1028.7 |
| 20260903182804 | 71 | 328 | 11.0 | 23.0 | 0.00 | 0.00 | 0.00 | 29 | 1028.4 |
| 20260903182306 | 71 | 348 | 15.0 | 25.0 | 0.00 | 0.00 | 0.00 | 29 | 1028.7 |
| 20260903181804 | 71 | 315 | 6.0 | 16.0 | 0.00 | 0.00 | 0.00 | 29 | 1028.7 |
| 20260903181304 | 71 | 35 | 8.0 | 17.0 | 0.00 | 0.00 | 0.00 | 30 | 1028.4 |
| 20260903180804 | 71 | 351 | 7.0 | 12.0 | 0.00 | 0.00 | 0.00 | 30 | 1028.7 |
| 20260903180304 | 72 | 309 | 12.0 | 20.0 | 0.00 | 0.00 | 0.00 | 30 | 1028.7 |
| 20260903175306 | 71 | 135 | 5.0 | 12.0 | 0.00 | 0.00 | 0.00 | 31 | 1028.7 |
| 20260903174304 | 71 | 135 | 7.0 | 12.0 | 0.00 | 0.00 | 0.00 | 31 | 1029.1 |
| 20260903173804 | 71 | 167 | 5.0 | 12.0 | 0.00 | 0.00 | 0.00 | 31 | 1028.7 |
| 20260903173304 | 71 | 175 | 11.0 | 29.0 | 0.00 | 0.00 | 0.00 | 30 | 1028.7 |
| 20260903172804 | 71 | 204 | 5.0 | 17.0 | 0.00 | 0.00 | 0.00 | 30 | 1028.7 |
| 20260903172306 | 71 | 200 | 17.0 | 28.0 | 0.00 | 0.00 | 0.00 | 30 | 1028.7 |
| 20260903171303 | 70 | 282 | 10.0 | 26.0 | 0.00 | 0.00 | 0.00 | 31 | 1028.4 |
| 20260903170304 | 70 | 320 | 2.0 | 9.0 | 0.00 | 0.00 | 0.00 | 31 | 1028.7 |
| 20260903165804 | 71 | 134 | 6.0 | 18.0 | 0.00 | 0.00 | 0.00 | 31 | 1028.7 |
| 20260903165305 | 71 | 33 | 9.0 | 21.0 | 0.00 | 0.00 | 0.00 | 32 | 1028.4 |
| 20260903164805 | 70 | 0 | 4.0 | 8.0 | 0.00 | 0.00 | 0.00 | 34 | 1028.7 |
| 20260903164304 | 69 | 1 | 8.0 | 18.0 | 0.00 | 0.00 | 0.00 | 34 | 1028.7 |
| 20260903163803 | 68 | 92 | 3.0 | 14.0 | 0.00 | 0.00 | 0.00 | 35 | 1028.7 |
| 20260903163304 | 68 | 316 | 11.0 | 17.0 | 0.00 | 0.00 | 0.00 | 37 | 1028.7 |
| 20260903162804 | 67 | 315 | 12.0 | 23.0 | 0.00 | 0.00 | 0.00 | 38 | 1028.4 |
| 20260903162306 | 67 | 317 | 10.0 | 18.0 | 0.00 | 0.00 | 0.00 | 40 | 1028.7 |
| 20260903161304 | 66 | 313 | 11.0 | 18.0 | 0.00 | 0.00 | 0.00 | 40 | 1028.4 |
| 20260903160804 | 66 | 315 | 13.0 | 18.0 | 0.00 | 0.00 | 0.00 | 41 | 1028.4 |
| 20260903160303 | 66 | 315 | 10.0 | 15.0 | 0.00 | 0.00 | 0.00 | 40 | 1028.4 |
| 20260903155804 | 66 | 314 | 3.0 | 20.0 | 0.00 | 0.00 | 0.00 | 40 | 1028.7 |
| 20260903155306 | 67 | 296 | 11.0 | 21.0 | 0.00 | 0.00 | 0.00 | 40 | 1028.7 |
| 20260903154304 | 66 | 283 | 5.0 | 22.0 | 0.00 | 0.00 | 0.00 | 40 | 1028.7 |
| 20260903153304 | 68 | 239 | 4.0 | 10.0 | 0.00 | 0.00 | 0.00 | 38 | 1029.1 |
| 20260903152306 | 68 | 118 | 7.0 | 14.0 | 0.00 | 0.00 | 0.00 | 38 | 1028.7 |
| 20260903150804 | 67 | 273 | 10.0 | 21.0 | 0.00 | 0.00 | 0.00 | 38 | 1028.8 |
| 20260903150303 | 67 | 213 | 9.0 | 14.0 | 0.00 | 0.00 | 0.00 | 39 | 1029.1 |
| 20260903145803 | 66 | 155 | 9.0 | 17.0 | 0.00 | 0.00 | 0.00 | 40 | 1029.1 |
| 20260903145306 | 66 | 215 | 7.0 | 14.0 | 0.00 | 0.00 | 0.00 | 41 | 1028.7 |
| 20260903144804 | 65 | 254 | 8.0 | 15.0 | 0.00 | 0.00 | 0.00 | 41 | 1029.1 |
| 20260903144304 | 65 | 285 | 9.0 | 13.0 | 0.00 | 0.00 | 0.00 | 42 | 1029.1 |
| 20260903143804 | 65 | 287 | 10.0 | 14.0 | 0.00 | 0.00 | 0.00 | 42 | 1029.1 |
| 20260903143304 | 65 | 93 | 5.0 | 9.0 | 0.00 | 0.00 | 0.00 | 42 | 1029.1 |
| 20260903142804 | 65 | 90 | 6.0 | 9.0 | 0.00 | 0.00 | 0.00 | 42 | 1029.1 |
| 20260903141804 | 64 | 280 | 3.0 | 13.0 | 0.00 | 0.00 | 0.00 | 44 | 1029.1 |
| 20260903141304 | 64 | 237 | 4.0 | 13.0 | 0.00 | 0.00 | 0.00 | 44 | 1029.1 |
| 20260903140803 | 63 | 45 | 5.0 | 7.0 | 0.00 | 0.00 | 0.00 | 45 | 1029.1 |
| 20260903140304 | 63 | 45 | 3.0 | 5.0 | 0.00 | 0.00 | 0.00 | 45 | 1029.1 |
| 20260903135804 | 63 | 90 | 3.0 | 6.0 | 0.00 | 0.00 | 0.00 | 45 | 1029.1 |
| 20260903135306 | 63 | 90 | 6.0 | 7.0 | 0.00 | 0.00 | 0.00 | 45 | 1029.1 |
| 20260903134803 | 63 | 90 | 5.0 | 6.0 | 0.00 | 0.00 | 0.00 | 45 | 1029.1 |
| 20260903134304 | 63 | 135 | 5.0 | 7.0 | 0.00 | 0.00 | 0.00 | 45 | 1028.7 |
| 20260903133802 | 62 | 180 | 3.0 | 3.0 | 0.00 | 0.00 | 0.00 | 45 | 1028.8 |
| 20260903133302 | 62 | 153 | 1.0 | 5.0 | 0.00 | 0.00 | 0.00 | 46 | 1028.7 |
| 20260903131803 | 60 | 229 | 3.0 | 6.0 | 0.00 | 0.00 | 0.00 | 49 | 1028.7 |
| 20260903131303 | 59 | 163 | 2.0 | 5.0 | 0.00 | 0.00 | 0.00 | 51 | 1028.4 |
| 20260903130802 | 58 | 180 | 3.0 | 5.0 | 0.00 | 0.00 | 0.00 | 52 | 1028.4 |
| 20260903130302 | 58 | 225 | 2.0 | 6.0 | 0.00 | 0.00 | 0.00 | 54 | 1028.4 |
| 20260903125802 | 57 | 180 | 3.0 | 7.0 | 0.00 | 0.00 | 0.00 | 54 | 1028.4 |
| 20260903125305 | 57 | 225 | 6.0 | 6.0 | 0.00 | 0.00 | 0.00 | 53 | 1028.4 |
| 20260903124802 | 57 | 225 | 1.0 | 5.0 | 0.00 | 0.00 | 0.00 | 52 | 1028.4 |
| 20260903124302 | 58 | 226 | 6.0 | 7.0 | 0.00 | 0.00 | 0.00 | 52 | 1028.4 |
| 20260903123802 | 58 | 160 | 2.0 | 5.0 | 0.00 | 0.00 | 0.00 | 51 | 1028.4 |
| 20260903123302 | 58 | 180 | 3.0 | 6.0 | 0.00 | 0.00 | 0.00 | 51 | 1028.4 |
| 20260903122802 | 58 | 202 | 6.0 | 8.0 | 0.00 | 0.00 | 0.00 | 51 | 1028.4 |
| 20260903122305 | 58 | 180 | 3.0 | 7.0 | 0.00 | 0.00 | 0.00 | 51 | 1028.4 |
| 20260903121802 | 59 | 195 | 7.0 | 10.0 | 0.00 | 0.00 | 0.00 | 50 | 1028.4 |
| 20260903121303 | 59 | 0 | 5.0 | 12.0 | 0.00 | 0.00 | 0.00 | 49 | 1028.4 |
| 20260903120803 | 59 | 38 | 2.0 | 5.0 | 0.00 | 0.00 | 0.00 | 49 | 1028.1 |
| 20260903120303 | 60 | 270 | 1.0 | 2.0 | 0.00 | 0.00 | 0.00 | 49 | 1028.4 |
| 20260903115802 | 59 | 301 | 4.0 | 6.0 | 0.00 | 0.00 | 0.00 | 50 | 1028.1 |
| 20260903115305 | 59 | 315 | 6.0 | 8.0 | 0.00 | 0.00 | 0.00 | 50 | 1028.1 |
| 20260903114802 | 58 | 90 | 2.0 | 6.0 | 0.00 | 0.00 | 0.00 | 50 | 1028.1 |
| 20260903113803 | 58 | 90 | 3.0 | 5.0 | 0.00 | 0.00 | 0.00 | 51 | 1028.1 |
| 20260903112802 | 60 | 225 | 4.0 | 6.0 | 0.00 | 0.00 | 0.00 | 49 | 1028.1 |
| 20260903111802 | 61 | 142 | 5.0 | 12.0 | 0.00 | 0.00 | 0.00 | 46 | 1028.1 |
| 20260903110802 | 60 | 316 | 3.0 | 12.0 | 0.00 | 0.00 | 0.00 | 49 | 1028.1 |
| 20260903110302 | 59 | 282 | 4.0 | 7.0 | 0.00 | 0.00 | 0.00 | 49 | 1028.1 |
| 20260903105802 | 59 | 180 | 3.0 | 3.0 | 0.00 | 0.00 | 0.00 | 49 | 1028.1 |
| 20260903105305 | 59 | 90 | 1.0 | 5.0 | 0.00 | 0.00 | 0.00 | 49 | 1028.1 |
| 20260903104802 | 59 | 0 | 0.0 | 5.0 | 0.00 | 0.00 | 0.00 | 49 | 1028.1 |
| 20260903104302 | 60 | 249 | 2.0 | 5.0 | 0.00 | 0.00 | 0.00 | 49 | 1028.1 |
| 20260903103803 | 60 | 270 | 5.0 | 7.0 | 0.00 | 0.00 | 0.00 | 48 | 1028.1 |
| 20260903103302 | 61 | 247 | 1.0 | 5.0 | 0.00 | 0.00 | 0.00 | 46 | 1028.1 |
| 20260903102802 | 61 | 229 | 3.0 | 8.0 | 0.00 | 0.00 | 0.00 | 46 | 1028.1 |
| 20260903102305 | 62 | 178 | 5.0 | 13.0 | 0.00 | 0.00 | 0.00 | 45 | 1028.1 |
| 20260903101803 | 61 | 227 | 5.0 | 12.0 | 0.00 | 0.00 | 0.00 | 46 | 1028.1 |
| 20260903101303 | 61 | 245 | 6.0 | 8.0 | 0.00 | 0.00 | 0.00 | 47 | 1028.1 |
| 20260903100803 | 61 | 180 | 3.0 | 6.0 | 0.00 | 0.00 | 0.00 | 46 | 1028.1 |
| 20260903100302 | 61 | 133 | 6.0 | 8.0 | 0.00 | 0.00 | 0.00 | 46 | 1028.1 |
| 20260903095802 | 60 | 38 | 7.0 | 15.0 | 0.00 | 0.00 | 0.00 | 48 | 1028.1 |
| 20260903095306 | 60 | 137 | 6.0 | 9.0 | 0.00 | 0.00 | 0.00 | 49 | 1028.1 |
| 20260903094802 | 60 | 187 | 5.0 | 8.0 | 0.00 | 0.00 | 0.00 | 49 | 1028.1 |
| 20260903094303 | 60 | 225 | 4.0 | 7.0 | 0.00 | 0.00 | 0.00 | 49 | 1028.0 |
| 20260903093302 | 61 | 45 | 0.0 | 2.0 | 0.00 | 0.00 | 0.00 | 48 | 1028.1 |
| 20260903092802 | 61 | 45 | 2.0 | 6.0 | 0.00 | 0.00 | 0.00 | 49 | 1028.1 |
| 20260903092306 | 61 | 342 | 5.0 | 7.0 | 0.00 | 0.00 | 0.00 | 49 | 1028.0 |
| 20260903091802 | 61 | 67 | 1.0 | 5.0 | 0.00 | 0.00 | 0.00 | 48 | 1028.4 |
| 20260903091303 | 62 | 45 | 3.0 | 5.0 | 0.00 | 0.00 | 0.00 | 48 | 1028.1 |
| 20260903090803 | 62 | 270 | 1.0 | 8.0 | 0.00 | 0.00 | 0.00 | 47 | 1028.1 |
| 20260903090303 | 62 | 181 | 3.0 | 8.0 | 0.00 | 0.00 | 0.00 | 47 | 1028.1 |
| 20260903085803 | 62 | 45 | 5.0 | 9.0 | 0.00 | 0.00 | 0.00 | 47 | 1028.1 |
| 20260903085305 | 62 | 0 | 2.0 | 7.0 | 0.00 | 0.00 | 0.00 | 47 | 1028.4 |
| 20260903084803 | 62 | 270 | 2.0 | 3.0 | 0.00 | 0.00 | 0.00 | 48 | 1028.4 |
| 20260903084302 | 61 | 315 | 1.0 | 3.0 | 0.00 | 0.00 | 0.00 | 48 | 1028.4 |
| 20260903083803 | 61 | 170 | 5.0 | 7.0 | 0.00 | 0.00 | 0.00 | 48 | 1028.4 |
| 20260903083302 | 61 | 225 | 2.0 | 3.0 | 0.00 | 0.00 | 0.00 | 48 | 1028.4 |
| 20260903082803 | 61 | 45 | 3.0 | 5.0 | 0.00 | 0.00 | 0.00 | 48 | 1028.4 |
| 20260903082306 | 61 | 0 | 3.0 | 6.0 | 0.00 | 0.00 | 0.00 | 48 | 1028.4 |
| 20260903081802 | 61 | 315 | 2.0 | 5.0 | 0.00 | 0.00 | 0.00 | 47 | 1028.4 |
| 20260903081303 | 61 | 0 | 5.0 | 7.0 | 0.00 | 0.00 | 0.00 | 48 | 1028.4 |
| 20260903080803 | 60 | 10 | 3.0 | 6.0 | 0.00 | 0.00 | 0.00 | 49 | 1028.4 |
| 20260903080302 | 60 | 225 | 3.0 | 6.0 | 0.00 | 0.00 | 0.00 | 49 | 1028.4 |